Year,Month,Day,Hour,Minute,Value (Times are PST for temperature in C)
2024,01,12,00,00,-7.90
2024,01,12,00,01,-7.90
2024,01,12,00,02,-7.90
2024,01,12,00,03,-7.90
2024,01,12,00,04,-7.90
2024,01,12,00,05,-7.90
2024,01,12,00,06,-7.90
2024,01,12,00,07,-7.80
2024,01,12,00,08,-7.80
2024,01,12,00,09,-7.90
2024,01,12,00,10,-7.90
2024,01,12,00,11,-7.90
2024,01,12,00,12,-7.90
2024,01,12,00,13,-8.00
2024,01,12,00,14,-8.00
2024,01,12,00,15,-8.00
2024,01,12,00,16,-8.10
2024,01,12,00,17,-8.10
2024,01,12,00,18,-8.20
2024,01,12,00,19,-8.20
2024,01,12,00,20,-8.20
2024,01,12,00,21,-8.20
2024,01,12,00,22,-8.20
2024,01,12,00,23,-8.10
2024,01,12,00,24,-8.10
2024,01,12,00,25,-8.10
2024,01,12,00,26,-8.10
2024,01,12,00,27,-8.20
2024,01,12,00,28,-8.20
2024,01,12,00,29,-8.20
2024,01,12,00,30,-8.20
2024,01,12,00,31,-8.20
2024,01,12,00,32,-8.20
2024,01,12,00,33,-8.20
2024,01,12,00,34,-8.30
2024,01,12,00,35,-8.30
2024,01,12,00,36,-8.30
2024,01,12,00,37,-8.30
2024,01,12,00,38,-8.40
2024,01,12,00,39,-8.40
2024,01,12,00,40,-8.40
2024,01,12,00,41,-8.40
2024,01,12,00,42,-8.40
2024,01,12,00,43,-8.40
2024,01,12,00,44,-8.40
2024,01,12,00,45,-8.40
2024,01,12,00,46,-8.40
2024,01,12,00,47,-8.40
2024,01,12,00,48,-8.40
2024,01,12,00,49,-8.50
2024,01,12,00,50,-8.50
2024,01,12,00,51,-8.60
2024,01,12,00,52,-8.60
2024,01,12,00,53,-8.60
2024,01,12,00,54,-8.50
2024,01,12,00,55,-8.50
2024,01,12,00,56,-8.40
2024,01,12,00,57,-8.40
2024,01,12,00,58,-8.40
2024,01,12,00,59,-8.40
2024,01,12,01,00,-8.50
2024,01,12,01,01,-8.50
2024,01,12,01,02,-8.60
2024,01,12,01,03,-8.60
2024,01,12,01,04,-8.70
2024,01,12,01,05,-8.70
2024,01,12,01,06,-8.70
2024,01,12,01,07,-8.70
2024,01,12,01,08,-8.80
2024,01,12,01,09,-8.70
2024,01,12,01,10,-8.70
2024,01,12,01,11,-8.70
2024,01,12,01,12,-8.70
2024,01,12,01,13,-8.80
2024,01,12,01,14,-8.80
2024,01,12,01,15,-8.80
2024,01,12,01,16,-8.80
2024,01,12,01,17,-8.80
2024,01,12,01,18,-8.80
2024,01,12,01,19,-8.80
2024,01,12,01,20,-8.80
2024,01,12,01,21,-8.80
2024,01,12,01,22,-8.80
2024,01,12,01,23,-8.80
2024,01,12,01,24,-8.80
2024,01,12,01,25,-8.80
2024,01,12,01,26,-8.90
2024,01,12,01,27,-8.90
2024,01,12,01,28,-8.90
2024,01,12,01,29,-8.80
2024,01,12,01,30,-8.80
2024,01,12,01,31,-8.80
2024,01,12,01,32,-8.90
2024,01,12,01,33,-8.90
2024,01,12,01,34,-8.90
2024,01,12,01,35,-8.90
2024,01,12,01,36,-8.90
2024,01,12,01,37,-8.90
2024,01,12,01,38,-9.00
2024,01,12,01,39,-9.00
2024,01,12,01,40,-9.00
2024,01,12,01,41,-9.00
2024,01,12,01,42,-9.00
2024,01,12,01,43,-9.00
2024,01,12,01,44,-9.10
2024,01,12,01,45,-9.10
2024,01,12,01,46,-9.10
2024,01,12,01,47,-9.10
2024,01,12,01,48,-9.10
2024,01,12,01,49,-9.10
2024,01,12,01,50,-9.10
2024,01,12,01,51,-9.00
2024,01,12,01,52,-9.10
2024,01,12,01,53,-9.10
2024,01,12,01,54,-9.10
2024,01,12,01,55,-9.10
2024,01,12,01,56,-9.10
2024,01,12,01,57,-9.10
2024,01,12,01,58,-9.10
2024,01,12,01,59,-9.10
2024,01,12,02,00,-9.10
2024,01,12,02,01,-9.10
2024,01,12,02,02,-9.20
2024,01,12,02,03,-9.20
2024,01,12,02,04,-9.20
2024,01,12,02,05,-9.20
2024,01,12,02,06,-9.20
2024,01,12,02,07,-9.20
2024,01,12,02,08,-9.20
2024,01,12,02,09,-9.20
2024,01,12,02,10,-9.30
2024,01,12,02,11,-9.40
2024,01,12,02,12,-9.40
2024,01,12,02,13,-9.40
2024,01,12,02,14,-9.40
2024,01,12,02,15,-9.40
2024,01,12,02,16,-9.40
2024,01,12,02,17,-9.50
2024,01,12,02,18,-9.50
2024,01,12,02,19,-9.50
2024,01,12,02,20,-9.60
2024,01,12,02,21,-9.70
2024,01,12,02,22,-9.70
2024,01,12,02,23,-9.70
2024,01,12,02,24,-9.70
2024,01,12,02,25,-9.60
2024,01,12,02,26,-9.60
2024,01,12,02,27,-9.60
2024,01,12,02,28,-9.60
2024,01,12,02,29,-9.70
2024,01,12,02,30,-9.70
2024,01,12,02,31,-9.70
2024,01,12,02,32,-9.70
2024,01,12,02,33,-9.70
2024,01,12,02,34,-9.70
2024,01,12,02,35,-9.70
2024,01,12,02,36,-9.70
2024,01,12,02,37,-9.70
2024,01,12,02,38,-9.70
2024,01,12,02,39,-9.70
2024,01,12,02,40,-9.70
2024,01,12,02,41,-9.70
2024,01,12,02,42,-9.70
2024,01,12,02,43,-9.80
2024,01,12,02,44,-9.70
2024,01,12,02,45,-9.70
2024,01,12,02,46,-9.70
2024,01,12,02,47,-9.80
2024,01,12,02,48,-9.80
2024,01,12,02,49,-9.70
2024,01,12,02,50,-9.70
2024,01,12,02,51,-9.70
2024,01,12,02,52,-9.60
2024,01,12,02,53,-9.60
2024,01,12,02,54,-9.60
2024,01,12,02,55,-9.60
2024,01,12,02,56,-9.60
2024,01,12,02,57,-9.60
2024,01,12,02,58,-9.70
2024,01,12,02,59,-9.70
2024,01,12,03,00,-9.70
2024,01,12,03,01,-9.70
2024,01,12,03,02,-9.70
2024,01,12,03,03,-9.70
2024,01,12,03,04,-9.70
2024,01,12,03,05,-9.70
2024,01,12,03,06,-9.70
2024,01,12,03,07,-9.70
2024,01,12,03,08,-9.70
2024,01,12,03,09,-9.70
2024,01,12,03,10,-9.70
2024,01,12,03,11,-9.70
2024,01,12,03,12,-9.70
2024,01,12,03,13,-9.70
2024,01,12,03,14,-9.70
2024,01,12,03,15,-9.70
2024,01,12,03,16,-9.70
2024,01,12,03,17,-9.80
2024,01,12,03,18,-9.80
2024,01,12,03,19,-9.80
2024,01,12,03,20,-9.80
2024,01,12,03,21,-9.80
2024,01,12,03,22,-9.80
2024,01,12,03,23,-9.80
2024,01,12,03,24,-9.80
2024,01,12,03,25,-9.80
2024,01,12,03,26,-9.80
2024,01,12,03,27,-9.80
2024,01,12,03,28,-9.80
2024,01,12,03,29,-9.80
2024,01,12,03,30,-9.80
2024,01,12,03,31,-9.80
2024,01,12,03,32,-9.80
2024,01,12,03,33,-9.80
2024,01,12,03,34,-9.80
2024,01,12,03,35,-9.80
2024,01,12,03,36,-9.80
2024,01,12,03,37,-9.90
2024,01,12,03,38,-9.90
2024,01,12,03,39,-9.90
2024,01,12,03,40,-9.90
2024,01,12,03,41,-9.80
2024,01,12,03,42,-9.90
2024,01,12,03,43,-9.90
2024,01,12,03,44,-9.90
2024,01,12,03,45,-9.90
2024,01,12,03,46,-9.90
2024,01,12,03,47,-9.90
2024,01,12,03,48,-9.90
2024,01,12,03,49,-9.90
2024,01,12,03,50,-10.00
2024,01,12,03,51,-10.00
2024,01,12,03,52,-10.00
2024,01,12,03,53,-10.00
2024,01,12,03,54,-10.00
2024,01,12,03,55,-10.00
2024,01,12,03,56,-10.10
2024,01,12,03,57,-10.10
2024,01,12,03,58,-10.10
2024,01,12,03,59,-10.10
2024,01,12,04,00,-10.10
2024,01,12,04,01,-10.20
2024,01,12,04,02,-10.20
2024,01,12,04,03,-10.20
2024,01,12,04,04,-10.20
2024,01,12,04,05,-10.20
2024,01,12,04,06,-10.20
2024,01,12,04,07,-10.20
2024,01,12,04,08,-10.20
2024,01,12,04,09,-10.20
2024,01,12,04,10,-10.20
2024,01,12,04,11,-10.20
2024,01,12,04,12,-10.20
2024,01,12,04,13,-10.30
2024,01,12,04,14,-10.30
2024,01,12,04,15,-10.30
2024,01,12,04,16,-10.30
2024,01,12,04,17,-10.30
2024,01,12,04,18,-10.30
2024,01,12,04,19,-10.20
2024,01,12,04,20,-10.20
2024,01,12,04,21,-10.20
2024,01,12,04,22,-10.20
2024,01,12,04,23,-10.30
2024,01,12,04,24,-10.20
2024,01,12,04,25,-10.20
2024,01,12,04,26,-10.20
2024,01,12,04,27,-10.20
2024,01,12,04,28,-10.30
2024,01,12,04,29,-10.30
2024,01,12,04,30,-10.30
2024,01,12,04,31,-10.20
2024,01,12,04,32,-10.20
2024,01,12,04,33,-10.20
2024,01,12,04,34,-10.20
2024,01,12,04,35,-10.20
2024,01,12,04,36,-10.20
2024,01,12,04,37,-10.20
2024,01,12,04,38,-10.10
2024,01,12,04,39,-9.90
2024,01,12,04,40,-9.80
2024,01,12,04,41,-9.90
2024,01,12,04,42,-9.90
2024,01,12,04,43,-10.00
2024,01,12,04,44,-10.10
2024,01,12,04,45,-10.10
2024,01,12,04,46,-10.20
2024,01,12,04,47,-10.20
2024,01,12,04,48,-10.20
2024,01,12,04,49,-10.20
2024,01,12,04,50,-10.20
2024,01,12,04,51,-10.20
2024,01,12,04,52,-10.20
2024,01,12,04,53,-10.20
2024,01,12,04,54,-10.20
2024,01,12,04,55,-10.20
2024,01,12,04,56,-10.20
2024,01,12,04,57,-10.20
2024,01,12,04,58,-10.20
2024,01,12,04,59,-10.20
2024,01,12,05,00,-10.20
2024,01,12,05,01,-10.20
2024,01,12,05,02,-10.20
2024,01,12,05,03,-10.20
2024,01,12,05,04,-10.20
2024,01,12,05,05,-10.20
2024,01,12,09,03,-10.80
2024,01,12,09,04,-10.80
2024,01,12,09,05,-10.80
2024,01,12,09,06,-10.80
2024,01,12,09,07,-10.80
2024,01,12,09,08,-10.80
2024,01,12,09,09,-10.80
2024,01,12,09,10,-10.80
2024,01,12,09,11,-10.70
2024,01,12,09,12,-10.70
2024,01,12,09,13,-10.70
2024,01,12,09,14,-10.70
2024,01,12,09,15,-10.80
2024,01,12,09,16,-10.80
2024,01,12,09,17,-10.80
2024,01,12,09,18,-10.80
2024,01,12,09,19,-10.80
2024,01,12,09,20,-10.70
2024,01,12,09,21,-10.70
2024,01,12,09,22,-10.70
2024,01,12,09,23,-10.70
2024,01,12,09,24,-10.70
2024,01,12,09,25,-10.70
2024,01,12,09,26,-10.70
2024,01,12,09,27,-10.70
2024,01,12,09,28,-10.70
2024,01,12,09,29,-10.70
2024,01,12,09,30,-10.70
2024,01,12,09,31,-10.70
2024,01,12,09,32,-10.70
2024,01,12,09,33,-10.70
2024,01,12,09,34,-10.70
2024,01,12,09,35,-10.60
2024,01,12,09,36,-10.60
2024,01,12,09,37,-10.60
2024,01,12,09,38,-10.70
2024,01,12,09,39,-10.70
2024,01,12,09,40,-10.70
2024,01,12,09,41,-10.70
2024,01,12,09,42,-10.70
2024,01,12,09,43,-10.70
2024,01,12,09,44,-10.70
2024,01,12,09,45,-10.70
2024,01,12,09,46,-10.60
2024,01,12,09,47,-10.60
2024,01,12,09,48,-10.60
2024,01,12,09,49,-10.70
2024,01,12,09,50,-10.70
2024,01,12,09,51,-10.70
2024,01,12,09,52,-10.70
2024,01,12,09,53,-10.70
2024,01,12,09,54,-10.60
2024,01,12,09,55,-10.60
2024,01,12,09,56,-10.60
2024,01,12,09,57,-10.60
2024,01,12,09,58,-10.60
2024,01,12,09,59,-10.60
2024,01,12,10,00,-10.60
2024,01,12,10,01,-10.60
2024,01,12,10,02,-10.60
2024,01,12,10,03,-10.60
2024,01,12,10,04,-10.60
2024,01,12,10,05,-10.60
2024,01,12,10,06,-10.60
2024,01,12,10,07,-10.60
2024,01,12,10,08,-10.60
2024,01,12,10,09,-10.70
2024,01,12,10,10,-10.70
2024,01,12,10,11,-10.60
2024,01,12,10,12,-10.60
2024,01,12,10,13,-10.60
2024,01,12,10,14,-10.60
2024,01,12,10,15,-10.60
2024,01,12,10,16,-10.60
2024,01,12,10,17,-10.60
2024,01,12,10,18,-10.60
2024,01,12,10,19,-10.50
2024,01,12,10,20,-10.50
2024,01,12,10,21,-10.50
2024,01,12,10,22,-10.50
2024,01,12,10,23,-10.50
2024,01,12,10,24,-10.60
2024,01,12,10,25,-10.60
2024,01,12,10,26,-10.60
2024,01,12,10,27,-10.60
2024,01,12,10,28,-10.60
2024,01,12,10,29,-10.60
2024,01,12,10,30,-10.60
2024,01,12,10,31,-10.60
2024,01,12,10,32,-10.60
2024,01,12,10,33,-10.60
2024,01,12,10,34,-10.50
2024,01,12,10,35,-10.50
2024,01,12,10,36,-10.50
2024,01,12,10,37,-10.50
2024,01,12,10,38,-10.40
2024,01,12,10,39,-10.40
2024,01,12,10,40,-10.40
2024,01,12,10,41,-10.40
2024,01,12,10,42,-10.40
2024,01,12,10,43,-10.40
2024,01,12,10,44,-10.40
2024,01,12,10,45,-10.40
2024,01,12,10,46,-10.40
2024,01,12,10,47,-10.30
2024,01,12,10,48,-10.30
2024,01,12,10,49,-10.30
2024,01,12,10,50,-10.30
2024,01,12,10,51,-10.20
2024,01,12,10,52,-10.10
2024,01,12,10,53,-10.00
2024,01,12,10,54,-10.00
2024,01,12,10,55,-10.00
2024,01,12,10,56,-10.00
2024,01,12,10,57,-10.10
2024,01,12,10,58,-10.20
2024,01,12,10,59,-10.20
2024,01,12,11,00,-10.20
2024,01,12,11,01,-10.30
2024,01,12,11,02,-10.30
2024,01,12,11,03,-10.30
2024,01,12,11,04,-10.30
2024,01,12,11,05,-10.30
2024,01,12,11,06,-10.30
2024,01,12,11,07,-10.20
2024,01,12,11,08,-10.20
2024,01,12,11,09,-10.10
2024,01,12,11,10,-10.10
2024,01,12,11,11,-10.10
2024,01,12,11,12,-10.10
2024,01,12,11,13,-10.10
2024,01,12,11,14,-10.20
2024,01,12,11,15,-10.20
2024,01,12,11,16,-10.20
2024,01,12,11,17,-10.30
2024,01,12,11,18,-10.30
2024,01,12,11,19,-10.30
2024,01,12,11,20,-10.30
2024,01,12,11,21,-10.30
2024,01,12,11,22,-10.30
2024,01,12,11,23,-10.20
2024,01,12,11,24,-10.20
2024,01,12,11,25,-10.10
2024,01,12,11,26,-10.10
2024,01,12,11,27,-10.10
2024,01,12,11,28,-10.10
2024,01,12,11,29,-10.00
2024,01,12,11,30,-10.00
2024,01,12,11,31,-9.90
2024,01,12,11,32,-9.90
2024,01,12,11,33,-9.80
2024,01,12,11,34,-9.80
2024,01,12,11,35,-9.80
2024,01,12,11,36,-9.80
2024,01,12,11,37,-9.80
2024,01,12,11,38,-9.80
2024,01,12,11,39,-9.80
2024,01,12,11,40,-9.80
2024,01,12,11,41,-9.80
2024,01,12,11,42,-9.80
2024,01,12,11,43,-9.80
2024,01,12,11,44,-9.80
2024,01,12,11,45,-9.80
2024,01,12,11,46,-9.80
2024,01,12,11,47,-9.80
2024,01,12,11,48,-9.80
2024,01,12,11,49,-9.80
2024,01,12,11,50,-9.80
2024,01,12,11,51,-9.80
2024,01,12,11,52,-9.80
2024,01,12,11,53,-9.80
2024,01,12,11,54,-9.70
2024,01,12,11,55,-9.70
2024,01,12,11,56,-9.70
2024,01,12,11,57,-9.70
2024,01,12,11,58,-9.70
2024,01,12,11,59,-9.80
2024,01,12,12,00,-9.80
2024,01,12,12,01,-9.80
2024,01,12,12,02,-9.80
2024,01,12,12,03,-9.80
2024,01,12,12,04,-9.90
2024,01,12,12,05,-9.90
2024,01,12,12,06,-9.80
2024,01,12,12,07,-9.80
2024,01,12,12,08,-9.80
2024,01,12,12,09,-9.80
2024,01,12,12,10,-9.80
2024,01,12,12,11,-9.80
2024,01,12,12,12,-9.70
2024,01,12,12,13,-9.80
2024,01,12,12,14,-9.80
2024,01,12,12,15,-9.80
2024,01,12,12,16,-9.80
2024,01,12,12,17,-9.80
2024,01,12,12,18,-9.80
2024,01,12,12,19,-9.80
2024,01,12,12,20,-9.90
2024,01,12,12,21,-9.80
2024,01,12,12,22,-9.80
2024,01,12,12,23,-9.80
2024,01,12,12,24,-9.80
2024,01,12,12,25,-9.80
2024,01,12,12,26,-9.80
2024,01,12,12,27,-9.80
2024,01,12,12,28,-9.80
2024,01,12,12,29,-9.80
2024,01,12,12,30,-9.80
2024,01,12,12,31,-9.80
2024,01,12,12,32,-9.70
2024,01,12,12,33,-9.70
2024,01,12,12,34,-9.70
2024,01,12,12,35,-9.70
2024,01,12,12,36,-9.70
2024,01,12,12,37,-9.70
2024,01,12,12,38,-9.70
2024,01,12,12,39,-9.70
2024,01,12,12,40,-9.70
2024,01,12,12,41,-9.60
2024,01,12,12,42,-9.60
2024,01,12,12,43,-9.60
2024,01,12,12,44,-9.50
2024,01,12,12,45,-9.50
2024,01,12,12,46,-9.50
2024,01,12,12,47,-9.50
2024,01,12,12,48,-9.40
2024,01,12,12,49,-9.40
2024,01,12,12,50,-9.40
2024,01,12,12,51,-9.40
2024,01,12,12,52,-9.40
2024,01,12,12,53,-9.30
2024,01,12,12,54,-9.30
2024,01,12,12,55,-9.30
2024,01,12,12,56,-9.30
2024,01,12,12,57,-9.30
2024,01,12,12,58,-9.30
2024,01,12,12,59,-9.30
2024,01,12,13,00,-9.30
2024,01,12,13,01,-9.30
2024,01,12,13,02,-9.20
2024,01,12,13,03,-9.20
2024,01,12,13,04,-9.20
2024,01,12,13,05,-9.20
2024,01,12,13,06,-9.20
2024,01,12,13,07,-9.20
2024,01,12,13,08,-9.20
2024,01,12,13,09,-9.20
2024,01,12,13,10,-9.20
2024,01,12,13,11,-9.20
2024,01,12,13,12,-9.20
2024,01,12,13,13,-9.20
2024,01,12,13,14,-9.20
2024,01,12,13,15,-9.10
2024,01,12,13,16,-9.20
2024,01,12,13,17,-9.20
2024,01,12,13,18,-9.10
2024,01,12,13,19,-9.10
2024,01,12,13,20,-9.10
2024,01,12,13,21,-9.10
2024,01,12,13,22,-9.10
2024,01,12,13,23,-9.10
2024,01,12,13,24,-9.10
2024,01,12,13,25,-9.10
2024,01,12,13,26,-9.10
2024,01,12,13,27,-9.10
2024,01,12,13,28,-9.10
2024,01,12,13,29,-9.10
2024,01,12,13,30,-9.10
2024,01,12,13,31,-9.10
2024,01,12,13,32,-9.10
2024,01,12,13,33,-9.00
2024,01,12,13,34,-9.00
2024,01,12,13,35,-9.00
2024,01,12,13,36,-9.00
2024,01,12,13,37,-9.00
2024,01,12,13,38,-9.00
2024,01,12,13,39,-9.10
2024,01,12,13,40,-9.10
2024,01,12,13,41,-9.10
2024,01,12,13,42,-9.10
2024,01,12,13,43,-9.10
2024,01,12,13,44,-9.10
2024,01,12,13,45,-9.10
2024,01,12,13,46,-9.10
2024,01,12,13,47,-9.20
2024,01,12,13,48,-9.20
2024,01,12,13,49,-9.20
2024,01,12,13,50,-9.20
2024,01,12,13,51,-9.20
2024,01,12,13,52,-9.10
2024,01,12,13,53,-9.10
2024,01,12,13,54,-9.10
2024,01,12,13,55,-9.10
2024,01,12,13,56,-9.00
2024,01,12,13,57,-9.00
2024,01,12,13,58,-8.90
2024,01,12,13,59,-8.90
2024,01,12,14,00,-8.90
2024,01,12,14,01,-8.90
2024,01,12,14,02,-8.80
2024,01,12,14,03,-8.80
2024,01,12,14,04,-8.80
2024,01,12,14,05,-8.80
2024,01,12,14,06,-8.80
2024,01,12,14,07,-8.80
2024,01,12,14,08,-8.70
2024,01,12,14,09,-8.70
2024,01,12,14,10,-8.70
2024,01,12,14,11,-8.70
2024,01,12,14,12,-8.70
2024,01,12,14,13,-8.70
2024,01,12,14,14,-8.70
2024,01,12,14,15,-8.70
2024,01,12,14,16,-8.70
2024,01,12,14,17,-8.70
2024,01,12,14,18,-8.70
2024,01,12,14,19,-8.70
2024,01,12,14,20,-8.70
2024,01,12,14,21,-8.70
2024,01,12,14,22,-8.70
2024,01,12,14,23,-8.60
2024,01,12,14,24,-8.60
2024,01,12,14,25,-8.60
2024,01,12,14,26,-8.60
2024,01,12,14,27,-8.60
2024,01,12,14,28,-8.60
2024,01,12,14,29,-8.60
2024,01,12,14,30,-8.60
2024,01,12,14,31,-8.60
2024,01,12,14,32,-8.60
2024,01,12,14,33,-8.60
2024,01,12,14,34,-8.60
2024,01,12,14,35,-8.60
2024,01,12,14,36,-8.50
2024,01,12,14,37,-8.60
2024,01,12,14,38,-8.60
2024,01,12,14,39,-8.60
2024,01,12,14,40,-8.60
2024,01,12,14,41,-8.60
2024,01,12,14,42,-8.60
2024,01,12,14,43,-8.60
2024,01,12,14,44,-8.60
2024,01,12,14,45,-8.60
2024,01,12,14,46,-8.50
2024,01,12,14,47,-8.50
2024,01,12,14,48,-8.40
2024,01,12,14,49,-8.40
2024,01,12,14,50,-8.40
2024,01,12,14,51,-8.40
2024,01,12,14,52,-8.40
2024,01,12,14,53,-8.40
2024,01,12,14,54,-8.40
2024,01,12,14,55,-8.40
2024,01,12,14,56,-8.50
2024,01,12,14,57,-8.50
2024,01,12,14,58,-8.60
2024,01,12,14,59,-8.60
2024,01,12,15,00,-8.50
2024,01,12,15,01,-8.40
2024,01,12,15,02,-8.40
2024,01,12,15,03,-8.30
2024,01,12,15,04,-8.30
2024,01,12,15,05,-8.30
2024,01,12,15,06,-8.30
2024,01,12,15,07,-8.30
2024,01,12,15,08,-8.30
2024,01,12,15,09,-8.30
2024,01,12,15,10,-8.30
2024,01,12,15,11,-8.30
2024,01,12,15,12,-8.40
2024,01,12,15,13,-8.40
2024,01,12,15,14,-8.40
2024,01,12,15,15,-8.50
2024,01,12,15,16,-8.50
2024,01,12,15,17,-8.50
2024,01,12,15,18,-8.50
2024,01,12,15,19,-8.60
2024,01,12,15,20,-8.60
2024,01,12,15,21,-8.60
2024,01,12,15,22,-8.60
2024,01,12,15,23,-8.60
2024,01,12,15,24,-8.70
2024,01,12,15,25,-8.70
2024,01,12,15,26,-8.70
2024,01,12,15,27,-8.70
2024,01,12,15,28,-8.70
2024,01,12,15,29,-8.70
2024,01,12,15,30,-8.80
2024,01,12,15,31,-8.80
2024,01,12,15,32,-8.80
2024,01,12,15,33,-8.80
2024,01,12,15,34,-8.80
2024,01,12,15,35,-8.80
2024,01,12,15,36,-8.80
2024,01,12,15,37,-8.90
2024,01,12,15,38,-8.90
2024,01,12,15,39,-8.80
2024,01,12,15,40,-8.90
2024,01,12,15,41,-8.90
2024,01,12,15,42,-8.90
2024,01,12,15,43,-8.90
2024,01,12,15,44,-8.90
2024,01,12,15,45,-8.90
2024,01,12,15,46,-8.90
2024,01,12,15,47,-8.90
2024,01,12,15,48,-8.90
2024,01,12,15,49,-8.90
2024,01,12,15,50,-8.90
2024,01,12,15,51,-8.90
2024,01,12,15,52,-8.90
2024,01,12,15,53,-8.90
2024,01,12,15,54,-8.90
2024,01,12,15,55,-8.90
2024,01,12,15,56,-8.90
2024,01,12,15,57,-8.90
2024,01,12,15,58,-8.90
2024,01,12,15,59,-8.90
2024,01,12,16,00,-8.90
2024,01,12,16,01,-8.90
2024,01,12,16,02,-8.90
2024,01,12,16,03,-8.90
2024,01,12,16,04,-8.90
2024,01,12,16,05,-8.90
2024,01,12,16,06,-8.90
2024,01,12,16,07,-8.90
2024,01,12,16,08,-8.90
2024,01,12,16,09,-8.90
2024,01,12,16,10,-8.90
2024,01,12,16,11,-8.80
2024,01,12,16,12,-8.80
2024,01,12,16,13,-8.80
2024,01,12,16,14,-8.80
2024,01,12,16,15,-8.80
2024,01,12,16,16,-8.80
2024,01,12,16,17,-8.80
2024,01,12,16,18,-8.80
2024,01,12,16,19,-8.80
2024,01,12,16,20,-8.80
2024,01,12,16,21,-8.80
2024,01,12,16,22,-8.80
2024,01,12,16,23,-8.80
2024,01,12,16,24,-8.80
2024,01,12,16,25,-8.80
2024,01,12,16,26,-8.90
2024,01,12,16,27,-8.90
2024,01,12,16,28,-8.90
2024,01,12,16,29,-8.90
2024,01,12,16,30,-8.90
2024,01,12,16,31,-8.90
2024,01,12,16,32,-8.90
2024,01,12,16,33,-8.90
2024,01,12,16,34,-8.90
2024,01,12,16,35,-8.90
2024,01,12,16,36,-8.90
2024,01,12,16,37,-8.90
2024,01,12,16,38,-8.90
2024,01,12,16,39,-8.90
2024,01,12,16,40,-8.90
2024,01,12,16,41,-9.00
2024,01,12,16,42,-9.00
2024,01,12,16,43,-9.10
2024,01,12,16,44,-9.10
2024,01,12,16,45,-9.10
2024,01,12,16,46,-9.10
2024,01,12,16,47,-9.10
2024,01,12,16,48,-9.00
2024,01,12,16,49,-9.00
2024,01,12,16,50,-9.00
2024,01,12,16,51,-9.00
2024,01,12,16,52,-9.00
2024,01,12,16,53,-9.00
2024,01,12,16,54,-9.10
2024,01,12,16,55,-9.10
2024,01,12,16,56,-9.10
2024,01,12,16,57,-9.10
2024,01,12,16,58,-9.10
2024,01,12,16,59,-9.10
2024,01,12,17,00,-9.10
2024,01,12,17,01,-9.10
2024,01,12,17,02,-9.20
2024,01,12,17,03,-9.20
2024,01,12,17,04,-9.20
2024,01,12,17,05,-9.20
2024,01,12,17,06,-9.30
2024,01,12,17,07,-9.30
2024,01,12,17,08,-9.30
2024,01,12,17,09,-9.30
2024,01,12,17,10,-9.30
2024,01,12,17,11,-9.30
2024,01,12,17,12,-9.30
2024,01,12,17,13,-9.30
2024,01,12,17,14,-9.30
2024,01,12,17,15,-9.30
2024,01,12,17,16,-9.30
2024,01,12,17,17,-9.30
2024,01,12,17,18,-9.30
2024,01,12,17,19,-9.30
2024,01,12,17,20,-9.30
2024,01,12,17,21,-9.30
2024,01,12,17,22,-9.30
2024,01,12,17,23,-9.30
2024,01,12,17,24,-9.30
2024,01,12,17,25,-9.30
2024,01,12,17,26,-9.30
2024,01,12,17,27,-9.30
2024,01,12,17,28,-9.30
2024,01,12,17,29,-9.30
2024,01,12,17,30,-9.30
2024,01,12,17,31,-9.30
2024,01,12,17,32,-9.40
2024,01,12,17,33,-9.40
2024,01,12,17,34,-9.40
2024,01,12,17,35,-9.40
2024,01,12,17,36,-9.40
2024,01,12,17,37,-9.40
2024,01,12,17,38,-9.40
2024,01,12,17,39,-9.40
2024,01,12,17,40,-9.40
2024,01,12,17,41,-9.40
2024,01,12,17,42,-9.50
2024,01,12,17,43,-9.50
2024,01,12,17,44,-9.60
2024,01,12,17,45,-9.60
2024,01,12,17,46,-9.60
2024,01,12,17,47,-9.60
2024,01,12,17,48,-9.60
2024,01,12,17,49,-9.60
2024,01,12,17,50,-9.60
2024,01,12,17,51,-9.70
2024,01,12,17,52,-9.70
2024,01,12,17,53,-9.70
2024,01,12,17,54,-9.70
2024,01,12,17,55,-9.70
2024,01,12,17,56,-9.70
2024,01,12,17,57,-9.80
2024,01,12,17,58,-9.70
2024,01,12,17,59,-9.70
2024,01,12,18,00,-9.70
2024,01,12,18,01,-9.70
2024,01,12,18,02,-9.70
2024,01,12,18,03,-9.60
2024,01,12,18,04,-9.60
2024,01,12,18,05,-9.60
2024,01,12,18,06,-9.70
2024,01,12,18,07,-9.70
2024,01,12,18,08,-9.70
2024,01,12,18,09,-9.70
2024,01,12,18,10,-9.70
2024,01,12,18,11,-9.70
2024,01,12,18,12,-9.70
2024,01,12,18,13,-9.70
2024,01,12,18,14,-9.70
2024,01,12,18,15,-9.70
2024,01,12,18,16,-9.60
2024,01,12,18,17,-9.50
2024,01,12,18,18,-9.50
2024,01,12,18,19,-9.40
2024,01,12,18,20,-9.40
2024,01,12,18,21,-9.40
2024,01,12,18,22,-9.40
2024,01,12,18,23,-9.50
2024,01,12,18,24,-9.50
2024,01,12,18,25,-9.40
2024,01,12,18,26,-9.50
2024,01,12,18,27,-9.50
2024,01,12,18,28,-9.50
2024,01,12,18,29,-9.50
2024,01,12,18,30,-9.50
2024,01,12,18,31,-9.50
2024,01,12,18,32,-9.50
2024,01,12,18,33,-9.50
2024,01,12,18,34,-9.50
2024,01,12,18,35,-9.60
2024,01,12,18,36,-9.50
2024,01,12,18,37,-9.50
2024,01,12,18,38,-9.40
2024,01,12,18,39,-9.40
2024,01,12,18,40,-9.40
2024,01,12,18,41,-9.40
2024,01,12,18,42,-9.40
2024,01,12,18,43,-9.40
2024,01,12,18,44,-9.40
2024,01,12,18,45,-9.40
2024,01,12,18,46,-9.40
2024,01,12,18,47,-9.40
2024,01,12,18,48,-9.40
2024,01,12,18,49,-9.40
2024,01,12,18,50,-9.40
2024,01,12,18,51,-9.40
2024,01,12,18,52,-9.40
2024,01,12,18,53,-9.40
2024,01,12,18,54,-9.40
2024,01,12,18,55,-9.40
2024,01,12,18,56,-9.40
2024,01,12,18,57,-9.40
2024,01,12,18,58,-9.40
2024,01,12,18,59,-9.40
2024,01,12,19,00,-9.40
2024,01,12,19,01,-9.40
2024,01,12,19,02,-9.40
2024,01,12,19,03,-9.40
2024,01,12,19,04,-9.40
2024,01,12,19,05,-9.40
2024,01,12,19,06,-9.40
2024,01,12,19,07,-9.40
2024,01,12,19,08,-9.40
2024,01,12,19,09,-9.40
2024,01,12,19,10,-9.40
2024,01,12,19,11,-9.40
2024,01,12,19,12,-9.40
2024,01,12,19,13,-9.40
2024,01,12,19,14,-9.40
2024,01,12,19,15,-9.40
2024,01,12,19,16,-9.40
2024,01,12,19,17,-9.40
2024,01,12,19,18,-9.50
2024,01,12,19,19,-9.50
2024,01,12,19,20,-9.60
2024,01,12,19,21,-9.60
2024,01,12,19,22,-9.60
2024,01,12,19,23,-9.60
2024,01,12,19,24,-9.60
2024,01,12,19,25,-9.60
2024,01,12,19,26,-9.60
2024,01,12,19,27,-9.50
2024,01,12,19,28,-9.50
2024,01,12,19,29,-9.40
2024,01,12,19,30,-9.40
2024,01,12,19,31,-9.40
2024,01,12,19,32,-9.40
2024,01,12,19,33,-9.50
2024,01,12,19,34,-9.50
2024,01,12,19,35,-9.50
2024,01,12,19,36,-9.40
2024,01,12,19,37,-9.40
2024,01,12,19,38,-9.40
2024,01,12,19,39,-9.40
2024,01,12,19,40,-9.40
2024,01,12,19,41,-9.40
2024,01,12,19,42,-9.40
2024,01,12,19,43,-9.40
2024,01,12,19,44,-9.40
2024,01,12,19,45,-9.40
2024,01,12,19,46,-9.40
2024,01,12,19,47,-9.40
2024,01,12,19,48,-9.40
2024,01,12,19,49,-9.40
2024,01,12,19,50,-9.40
2024,01,12,19,51,-9.40
2024,01,12,19,52,-9.40
2024,01,12,19,53,-9.30
2024,01,12,19,54,-9.30
2024,01,12,19,55,-9.30
2024,01,12,19,56,-9.30
2024,01,12,19,57,-9.40
2024,01,12,19,58,-9.40
2024,01,12,19,59,-9.40
2024,01,12,20,00,-9.40
2024,01,12,20,01,-9.40
2024,01,12,20,02,-9.40
2024,01,12,20,03,-9.30
2024,01,12,20,04,-9.30
2024,01,12,20,05,-9.30
2024,01,12,20,06,-9.30
2024,01,12,20,07,-9.30
2024,01,12,20,08,-9.30
2024,01,12,20,09,-9.30
2024,01,12,20,10,-9.30
2024,01,12,20,11,-9.30
2024,01,12,20,12,-9.30
2024,01,12,20,13,-9.30
2024,01,12,20,14,-9.30
2024,01,12,20,15,-9.30
2024,01,12,20,16,-9.30
2024,01,12,20,17,-9.30
2024,01,12,20,18,-9.30
2024,01,12,20,19,-9.30
2024,01,12,20,20,-9.30
2024,01,12,20,21,-9.30
2024,01,12,20,22,-9.30
2024,01,12,20,23,-9.30
2024,01,12,20,24,-9.30
2024,01,12,20,25,-9.30
2024,01,12,20,26,-9.30
2024,01,12,20,27,-9.30
2024,01,12,20,28,-9.30
2024,01,12,20,29,-9.30
2024,01,12,20,30,-9.30
2024,01,12,20,31,-9.30
2024,01,12,20,32,-9.30
2024,01,12,20,33,-9.30
2024,01,12,20,34,-9.30
2024,01,12,20,35,-9.30
2024,01,12,20,36,-9.30
2024,01,12,20,37,-9.30
2024,01,12,20,38,-9.20
2024,01,12,20,39,-9.20
2024,01,12,20,40,-9.20
2024,01,12,20,41,-9.20
2024,01,12,20,42,-9.20
2024,01,12,20,43,-9.20
2024,01,12,20,44,-9.20
2024,01,12,20,45,-9.30
2024,01,12,20,46,-9.20
2024,01,12,20,47,-9.20
2024,01,12,20,48,-9.20
2024,01,12,20,49,-9.30
2024,01,12,20,50,-9.30
2024,01,12,20,51,-9.30
2024,01,12,20,52,-9.30
2024,01,12,20,53,-9.30
2024,01,12,20,54,-9.40
2024,01,12,20,55,-9.40
2024,01,12,20,56,-9.40
2024,01,12,20,57,-9.40
2024,01,12,20,58,-9.40
2024,01,12,20,59,-9.40
2024,01,12,21,00,-9.40
2024,01,12,21,01,-9.40
2024,01,12,21,02,-9.40
2024,01,12,21,03,-9.40
2024,01,12,21,04,-9.40
2024,01,12,21,05,-9.40
2024,01,12,21,06,-9.40